TimeCST,TemperatureF,Dew PointF,Humidity,Sea Level PressureIn,VisibilityMPH,Wind Direction,Wind SpeedMPH,Gust SpeedMPH,PrecipitationIn,Events,Conditions,WindDirDegrees,DateUTC
12:52 AM,28.9,25.0,85,29.93,10.0,SSW,5.8,-,N/A,,Partly Cloudy,200,2013-01-18 06:52:00
1:52 AM,26.1,23.0,88,29.91,10.0,SSW,3.5,-,N/A,,Partly Cloudy,200,2013-01-18 07:52:00
2:52 AM,26.1,23.0,88,29.89,10.0,SE,4.6,-,N/A,,Clear,140,2013-01-18 08:52:00
3:52 AM,27.0,24.1,89,29.87,10.0,SW,4.6,-,N/A,,Clear,220,2013-01-18 09:52:00
4:52 AM,30.9,24.1,76,29.84,10.0,SW,5.8,-,N/A,,Clear,230,2013-01-18 10:52:00
5:52 AM,28.9,21.9,75,29.83,10.0,West,12.7,-,N/A,,Clear,270,2013-01-18 11:52:00
6:52 AM,30.9,23.0,72,29.82,10.0,West,13.8,-,N/A,,Clear,280,2013-01-18 12:52:00
7:52 AM,28.9,23.0,78,29.83,10.0,West,6.9,-,N/A,,Clear,260,2013-01-18 13:52:00
8:52 AM,30.0,23.0,75,29.83,10.0,West,8.1,-,N/A,,Clear,260,2013-01-18 14:52:00
9:52 AM,34.0,25.0,70,29.85,10.0,Calm,Calm,-,N/A,,Partly Cloudy,0,2013-01-18 15:52:00
10:52 AM,36.0,27.0,70,29.86,10.0,West,12.7,-,N/A,,Clear,280,2013-01-18 16:52:00
11:52 AM,37.9,28.0,68,29.85,10.0,WNW,10.4,-,N/A,,Clear,300,2013-01-18 17:52:00
12:52 PM,39.0,28.9,67,29.82,10.0,West,8.1,-,N/A,,Mostly Cloudy,280,2013-01-18 18:52:00
1:52 PM,39.9,28.9,65,29.81,10.0,West,11.5,-,N/A,,Mostly Cloudy,270,2013-01-18 19:52:00
2:52 PM,41.0,28.9,62,29.78,10.0,WSW,5.8,-,N/A,,Clear,240,2013-01-18 20:52:00
3:52 PM,39.0,30.0,70,29.79,10.0,SW,6.9,-,N/A,,Clear,220,2013-01-18 21:52:00
4:52 PM,37.9,28.9,70,29.78,10.0,SW,5.8,-,N/A,,Clear,230,2013-01-18 22:52:00
5:52 PM,37.0,28.0,70,29.78,10.0,West,9.2,-,N/A,,Clear,270,2013-01-18 23:52:00
6:52 PM,37.9,28.0,68,29.78,10.0,West,4.6,-,N/A,,Clear,270,2013-01-19 00:52:00
7:52 PM,36.0,28.0,73,29.78,10.0,Calm,Calm,-,N/A,,Partly Cloudy,0,2013-01-19 01:52:00
8:52 PM,36.0,28.0,73,29.78,10.0,West,3.5,-,N/A,,Mostly Cloudy,280,2013-01-19 02:52:00
9:52 PM,36.0,28.9,76,29.77,10.0,West,9.2,-,N/A,,Partly Cloudy,270,2013-01-19 03:52:00
10:52 PM,35.1,28.9,78,29.77,10.0,WNW,6.9,-,N/A,,Clear,300,2013-01-19 04:52:00
11:52 PM,34.0,28.0,79,29.77,10.0,WSW,5.8,-,N/A,,Clear,250,2013-01-19 05:52:00